New Orleans Lakefront, LA

4:43 AM CDT on June 29, 2017 (GMT -0500)
Lakefront

Weather History for KNEW - February, 2013

Change the Weather History Date:

Thursday, February 7, 2013

  Actual Average Record
Temperature  
Mean Temperature 63 °F 55 °F  
Max Temperature 70 °F 64 °F 80 °F (1999)
Min Temperature 56 °F 47 °F 25 °F (1988)
Degree Days  
Heating Degree Days 2 10  
Month to date heating degree days 45 76  
Since 1 July heating degree days 730 932  
Cooling Degree Days 0 1  
Month to date cooling degree days 0 7  
Year to date cooling degree days 25 23  
Growing Degree Days 14 (Base 50)    
Moisture  
Dew Point 58 °F    
Average Humidity 85    
Maximum Humidity 97    
Minimum Humidity 73    
Precipitation  
Precipitation 1.09 in 0.20 in 1.09 in (2013)
Month to date precipitation 2.76 1.36  
Year to date precipitation 9.35 6.51  
Snow  
Snow 0.00 in - - ()
Month to date snowfall 0.0  
Since 1 July snowfall 0.0  
Snow Depth 0.00 in    
Sea Level Pressure  
Sea Level Pressure 29.88 in    
Wind  
Wind Speed 8 mph (NNE)    
Max Wind Speed 30 mph    
Max Gust Speed 45 mph    
Visibility 6 miles    
Events Rain    
T = Trace of Precipitation, MM = Missing Value Source: NWS Daily Summary

Daily Weather History Graph

Daily Weather History Graph

Search for Another Location

Airport or City:

Trip Planner

Search our weather history database for the weather conditions in past years. The results will help you decide how hot, cold, wet, or windy it might be!

Date:

Astronomy

Feb. 07, 2013 Rise Set
Actual Time 6:46 AM CST 5:42 PM CST
Civil Twilight 6:21 AM CST 6:07 PM CST
Nautical Twilight 5:53 AM CST 6:35 PM CST
Astronomical Twilight 5:25 AM CST 7:03 PM CST
Moon 4:19 AM CST (2/7) 3:12 PM CST (2/7)
Length of Visible Light 11h 45m
Length of Day
10h 56m
Waning Crescent, 9% of the Moon is Illuminated
Feb 7
Waning Crescent
Feb 10
New
Feb 17
First Quarter
Feb 25
Full
Mar 4
Last Quarter

Hourly Weather History & Observations

Time (CST) Temp. Dew Point Humidity Pressure Visibility Wind Dir Wind Speed Gust Speed Precip Events Conditions
12:06 AM 64.4 °F 57.2 °F 77% 29.94 in 6.0 mi ENE 17.3 mph - 0.01 in Rain Light Rain
12:48 AM 64.4 °F 59.0 °F 83% 29.92 in 2.5 mi East 19.6 mph 26.5 mph 0.19 in Rain Rain
12:53 AM 64.0 °F 59.0 °F 84% 29.91 in 2.5 mi East 19.6 mph 27.6 mph 0.22 in Rain Rain
1:07 AM 66.2 °F 59.0 °F 78% 29.87 in 3.0 mi East 25.3 mph 33.4 mph 0.09 in Rain Light Rain
1:14 AM 64.4 °F 59.0 °F 83% 29.85 in 5.0 mi East 28.8 mph 35.7 mph 0.10 in Rain Light Rain
1:53 AM 64.9 °F 59.0 °F 81% 29.86 in 10.0 mi East 17.3 mph 26.5 mph 0.12 in Rain Light Rain
2:53 AM 64.9 °F 60.1 °F 84% 29.82 in 10.0 mi East 19.6 mph 27.6 mph 0.13 in   Overcast
3:53 AM 66.0 °F 61.0 °F 84% 29.80 in 5.0 mi ESE 11.5 mph - 0.04 in Rain Light Rain
4:29 AM 64.4 °F 57.2 °F 77% 29.83 in 1.5 mi NW 31.1 mph 42.6 mph 0.13 in Rain Heavy Rain
4:35 AM 64.4 °F 59.0 °F 83% 29.83 in 1.2 mi ENE 10.4 mph 42.6 mph 0.17 in Rain Heavy Rain
4:39 AM 64.4 °F 57.2 °F 77% 29.84 in 2.0 mi North 25.3 mph 39.1 mph 0.20 in Rain Rain
4:42 AM 62.6 °F 57.2 °F 82% 29.84 in 1.8 mi North 26.5 mph 39.1 mph 0.29 in Rain Heavy Rain
4:45 AM 62.6 °F 57.2 °F 82% 29.83 in 1.2 mi North 25.3 mph 39.1 mph 0.41 in Rain Heavy Rain
4:53 AM 63.0 °F 57.0 °F 81% 29.81 in 1.5 mi NNE 34.5 mph 40.3 mph 0.45 in Rain Rain
5:07 AM 62.6 °F 57.2 °F 82% 29.84 in 3.0 mi NNE 27.6 mph 42.6 mph 0.14 in Rain Light Rain
5:32 AM 62.6 °F 57.2 °F 82% 29.86 in 2.5 mi North 27.6 mph 33.4 mph 0.28 in Rain Light Rain
5:40 AM 62.6 °F 57.2 °F 82% 29.89 in 5.0 mi North 26.5 mph 34.5 mph 0.30 in Rain Light Rain
5:53 AM 63.0 °F 57.0 °F 81% 29.87 in 6.0 mi North 23.0 mph - 0.32 in Rain Light Rain
3:53 PM 66.9 °F 57.9 °F 73% 29.91 in 10.0 mi West 8.1 mph - N/A   Scattered Clouds
4:53 PM 64.9 °F 57.0 °F 75% 29.91 in 10.0 mi West 8.1 mph - N/A   Clear
5:53 PM 64.0 °F 57.0 °F 78% 29.91 in 10.0 mi West 6.9 mph - N/A   Clear
6:53 PM 64.0 °F 57.0 °F 78% 29.93 in 10.0 mi SW 5.8 mph - N/A   Clear
7:53 PM 64.0 °F 55.9 °F 75% 29.94 in 10.0 mi WSW 5.8 mph - N/A   Clear
8:53 PM 64.0 °F 55.9 °F 75% 29.94 in 10.0 mi SSW 3.5 mph - N/A   Clear
9:53 PM 63.0 °F 55.9 °F 78% 29.95 in 9.0 mi SSW 5.8 mph - N/A   Clear
10:53 PM 62.1 °F 55.9 °F 80% 29.95 in 6.0 mi SSW 4.6 mph - N/A   Haze
11:53 PM 63.0 °F 57.0 °F 81% 29.95 in 4.0 mi West 4.6 mph - N/A   Haze